Year,Month,Day,Hour,Minute,Value (Times are PST for windspeed in km/hr)
2020,01,14,00,00,9.90
2020,01,14,00,01,15.60
2020,01,14,00,02,12.10
2020,01,14,00,03,12.00
2020,01,14,00,04,9.40
2020,01,14,00,05,12.60
2020,01,14,00,06,16.20
2020,01,14,00,07,10.90
2020,01,14,00,08,11.90
2020,01,14,00,09,9.90
2020,01,14,00,10,10.90
2020,01,14,00,11,10.70
2020,01,14,00,12,9.90
2020,01,14,00,13,17.90
2020,01,14,00,14,13.90
2020,01,14,00,15,12.90
2020,01,14,00,16,15.80
2020,01,14,00,17,13.50
2020,01,14,00,18,19.30
2020,01,14,00,19,16.70
2020,01,14,00,20,8.80
2020,01,14,00,21,11.80
2020,01,14,00,22,13.30
2020,01,14,00,23,7.60
2020,01,14,00,24,9.10
2020,01,14,00,25,10.90
2020,01,14,00,26,7.30
2020,01,14,00,27,14.60
2020,01,14,00,28,12.90
2020,01,14,00,29,14.60
2020,01,14,00,30,5.10
2020,01,14,00,31,4.70
2020,01,14,00,32,5.90
2020,01,14,00,33,11.30
2020,01,14,00,34,15.00
2020,01,14,00,35,11.00
2020,01,14,00,36,10.90
2020,01,14,00,37,9.50
2020,01,14,00,38,10.80
2020,01,14,00,39,10.40
2020,01,14,00,40,11.50
2020,01,14,00,41,10.10
2020,01,14,00,42,10.60
2020,01,14,00,43,12.60
2020,01,14,00,44,7.80
2020,01,14,00,45,8.40
2020,01,14,00,46,13.40
2020,01,14,00,47,15.00
2020,01,14,00,48,19.20
2020,01,14,00,49,12.30
2020,01,14,00,50,14.20
2020,01,14,00,51,13.20
2020,01,14,00,52,12.10
2020,01,14,00,53,14.30
2020,01,14,00,54,15.90
2020,01,14,00,55,14.80
2020,01,14,00,56,19.10
2020,01,14,00,57,17.30
2020,01,14,00,58,18.20
2020,01,14,00,59,14.20
2020,01,14,01,00,14.60
2020,01,14,01,01,21.60
2020,01,14,01,02,14.40
2020,01,14,01,03,13.30
2020,01,14,01,04,11.10
2020,01,14,01,05,9.80
2020,01,14,01,06,4.80
2020,01,14,01,07,11.80
2020,01,14,01,08,10.90
2020,01,14,01,09,9.90
2020,01,14,01,10,8.70
2020,01,14,01,11,9.70
2020,01,14,01,12,7.90
2020,01,14,01,13,13.30
2020,01,14,01,14,13.30
2020,01,14,01,15,16.20
2020,01,14,01,16,15.70
2020,01,14,01,17,12.70
2020,01,14,01,18,15.90
2020,01,14,01,19,12.40
2020,01,14,01,20,16.40
2020,01,14,01,21,7.80
2020,01,14,01,22,10.90
2020,01,14,01,23,7.60
2020,01,14,01,24,6.40
2020,01,14,01,25,9.60
2020,01,14,01,26,11.90
2020,01,14,01,27,13.20
2020,01,14,01,28,14.30
2020,01,14,01,29,6.90
2020,01,14,01,30,17.60
2020,01,14,01,31,15.00
2020,01,14,01,32,13.10
2020,01,14,01,33,12.00
2020,01,14,01,34,16.20
2020,01,14,01,35,11.10
2020,01,14,01,36,9.70
2020,01,14,01,37,20.20
2020,01,14,01,38,19.00
2020,01,14,01,39,15.10
2020,01,14,01,40,6.00
2020,01,14,01,41,11.00
2020,01,14,01,42,18.80
2020,01,14,01,43,19.60
2020,01,14,01,44,14.10
2020,01,14,01,45,9.90
2020,01,14,01,46,10.50
2020,01,14,01,47,15.00
2020,01,14,01,48,22.50
2020,01,14,01,49,14.70
2020,01,14,01,50,14.50
2020,01,14,01,51,11.90
2020,01,14,01,52,11.60
2020,01,14,01,53,7.30
2020,01,14,01,54,19.00
2020,01,14,01,55,18.40
2020,01,14,01,56,16.20
2020,01,14,01,57,11.60
2020,01,14,01,58,8.50
2020,01,14,01,59,13.50
2020,01,14,02,00,6.90
2020,01,14,02,01,11.60
2020,01,14,02,02,21.20
2020,01,14,02,03,21.50
2020,01,14,02,04,14.30
2020,01,14,02,05,7.90
2020,01,14,02,06,9.30
2020,01,14,02,07,12.70
2020,01,14,02,08,8.60
2020,01,14,02,09,8.20
2020,01,14,02,10,6.00
2020,01,14,02,11,7.10
2020,01,14,02,12,11.90
2020,01,14,02,13,16.00
2020,01,14,02,14,10.10
2020,01,14,02,15,9.60
2020,01,14,02,16,8.30
2020,01,14,02,17,11.90
2020,01,14,02,18,11.30
2020,01,14,02,19,16.20
2020,01,14,02,20,9.90
2020,01,14,02,21,7.10
2020,01,14,02,22,5.00
2020,01,14,02,23,9.90
2020,01,14,02,24,10.60
2020,01,14,02,25,9.00
2020,01,14,02,26,15.10
2020,01,14,02,27,10.80
2020,01,14,02,28,10.30
2020,01,14,02,29,12.90
2020,01,14,02,30,9.20
2020,01,14,02,31,12.70
2020,01,14,02,32,11.70
2020,01,14,02,33,15.40
2020,01,14,02,34,18.50
2020,01,14,02,35,12.30
2020,01,14,02,36,9.30
2020,01,14,02,37,10.10
2020,01,14,02,38,11.50
2020,01,14,02,39,12.30
2020,01,14,02,40,11.90
2020,01,14,02,41,14.30
2020,01,14,02,42,11.40
2020,01,14,02,43,6.10
2020,01,14,02,44,6.40
2020,01,14,02,45,7.10
2020,01,14,02,46,7.90
2020,01,14,02,47,8.00
2020,01,14,02,48,10.90
2020,01,14,02,49,13.90
2020,01,14,02,50,10.60
2020,01,14,02,51,15.70
2020,01,14,02,52,7.60
2020,01,14,02,53,9.20
2020,01,14,02,54,8.30
2020,01,14,02,55,9.70
2020,01,14,02,56,9.90
2020,01,14,02,57,14.40
2020,01,14,02,58,13.00
2020,01,14,02,59,7.90
2020,01,14,03,00,9.90
2020,01,14,03,01,13.40
2020,01,14,03,02,14.00
2020,01,14,03,03,10.80
2020,01,14,03,04,11.10
2020,01,14,03,05,13.60
2020,01,14,03,06,9.50
2020,01,14,03,07,8.20
2020,01,14,03,08,15.30
2020,01,14,03,09,11.30
2020,01,14,03,10,13.10
2020,01,14,03,11,6.40
2020,01,14,03,12,9.40
2020,01,14,03,13,9.00
2020,01,14,03,14,13.40
2020,01,14,03,15,9.70
2020,01,14,03,16,11.00
2020,01,14,03,17,5.70
2020,01,14,03,18,7.80
2020,01,14,03,19,8.00
2020,01,14,03,20,8.20
2020,01,14,03,21,5.30
2020,01,14,03,22,6.40
2020,01,14,03,23,10.40
2020,01,14,03,24,13.90
2020,01,14,03,25,13.60
2020,01,14,03,26,10.70
2020,01,14,03,27,17.60
2020,01,14,03,28,15.30
2020,01,14,03,29,10.40
2020,01,14,03,30,8.00
2020,01,14,03,31,7.40
2020,01,14,03,32,8.50
2020,01,14,03,33,10.30
2020,01,14,03,34,12.10
2020,01,14,03,35,17.20
2020,01,14,03,36,15.70
2020,01,14,03,37,15.70
2020,01,14,03,38,15.70
2020,01,14,03,39,14.40
2020,01,14,03,40,15.60
2020,01,14,03,41,10.60
2020,01,14,03,42,12.70
2020,01,14,03,43,15.70
2020,01,14,03,44,5.80
2020,01,14,03,45,9.20
2020,01,14,03,46,9.60
2020,01,14,03,47,16.40
2020,01,14,03,48,19.60
2020,01,14,03,49,13.20
2020,01,14,03,50,10.10
2020,01,14,03,51,7.20
2020,01,14,03,52,10.60
2020,01,14,03,53,10.00
2020,01,14,03,54,11.00
2020,01,14,03,55,15.20
2020,01,14,03,56,14.00
2020,01,14,03,57,9.40
2020,01,14,03,58,11.00
2020,01,14,03,59,10.30
2020,01,14,04,00,9.00
2020,01,14,04,01,10.90
2020,01,14,04,02,11.40
2020,01,14,04,03,15.40
2020,01,14,04,04,12.00
2020,01,14,04,05,9.10
2020,01,14,04,06,12.00
2020,01,14,04,07,18.50
2020,01,14,04,08,12.00
2020,01,14,04,09,11.80
2020,01,14,04,10,13.90
2020,01,14,04,11,8.50
2020,01,14,04,12,11.00
2020,01,14,04,13,7.00
2020,01,14,04,14,11.40
2020,01,14,04,15,5.50
2020,01,14,04,16,5.00
2020,01,14,04,17,14.30
2020,01,14,04,18,15.60
2020,01,14,04,19,14.50
2020,01,14,04,20,16.20
2020,01,14,04,21,14.30
2020,01,14,04,22,11.50
2020,01,14,04,23,12.50
2020,01,14,04,24,12.50
2020,01,14,04,25,9.70
2020,01,14,04,26,9.50
2020,01,14,04,27,13.20
2020,01,14,04,28,16.00
2020,01,14,04,29,15.60
2020,01,14,04,30,11.20
2020,01,14,04,31,9.70
2020,01,14,04,32,10.80
2020,01,14,04,33,11.10
2020,01,14,04,34,15.50
2020,01,14,04,35,14.10
2020,01,14,04,36,12.50
2020,01,14,04,37,14.40
2020,01,14,04,38,14.70
2020,01,14,04,39,17.50
2020,01,14,04,40,17.30
2020,01,14,04,41,15.50
2020,01,14,04,42,16.10
2020,01,14,04,43,15.30
2020,01,14,04,44,17.10
2020,01,14,04,45,16.00
2020,01,14,04,46,13.80
2020,01,14,04,47,9.20
2020,01,14,04,48,9.50
2020,01,14,04,49,14.80
2020,01,14,04,50,13.90
2020,01,14,04,51,13.20
2020,01,14,04,52,8.70
2020,01,14,04,53,11.80
2020,01,14,04,54,14.30
2020,01,14,04,55,16.00
2020,01,14,04,56,10.50
2020,01,14,04,57,14.40
2020,01,14,04,58,12.00
2020,01,14,04,59,14.70
2020,01,14,05,00,16.50
2020,01,14,05,01,9.40
2020,01,14,05,02,7.40
2020,01,14,05,03,11.70
2020,01,14,05,04,14.70
2020,01,14,05,05,13.30
2020,01,14,05,06,16.80
2020,01,14,05,07,16.50
2020,01,14,05,08,17.40
2020,01,14,05,09,11.70
2020,01,14,05,10,5.40
2020,01,14,05,11,8.40
2020,01,14,05,12,10.10
2020,01,14,05,13,15.70
2020,01,14,05,14,14.00
2020,01,14,05,15,9.80
2020,01,14,05,16,12.70
2020,01,14,05,17,9.20
2020,01,14,05,18,10.40
2020,01,14,05,19,10.60
2020,01,14,05,20,10.10
2020,01,14,05,21,11.00
2020,01,14,05,22,8.00
2020,01,14,05,23,9.40
2020,01,14,05,24,5.90
2020,01,14,05,25,4.70
2020,01,14,05,26,11.50
2020,01,14,05,27,8.30
2020,01,14,05,28,15.10
2020,01,14,05,29,12.90
2020,01,14,05,30,11.20
2020,01,14,05,31,11.80
2020,01,14,05,32,8.30
2020,01,14,05,33,13.60
2020,01,14,05,34,14.10
2020,01,14,05,35,13.20
2020,01,14,05,36,8.20
2020,01,14,05,37,10.60
2020,01,14,05,38,11.90
2020,01,14,05,39,12.80
2020,01,14,05,40,5.70
2020,01,14,05,41,5.50
2020,01,14,05,42,4.70
2020,01,14,05,43,8.50
2020,01,14,05,44,5.50
2020,01,14,05,45,4.70
2020,01,14,05,46,4.80
2020,01,14,05,47,9.40
2020,01,14,05,48,11.00
2020,01,14,05,49,15.60
2020,01,14,05,50,15.40
2020,01,14,05,51,9.00
2020,01,14,05,52,10.80
2020,01,14,05,53,19.70
2020,01,14,05,54,10.30
2020,01,14,05,55,8.30
2020,01,14,05,56,9.40
2020,01,14,05,57,15.40
2020,01,14,05,58,20.50
2020,01,14,05,59,15.20
2020,01,14,06,00,8.30
2020,01,14,06,01,13.40
2020,01,14,06,02,19.90
2020,01,14,06,03,19.90
2020,01,14,06,04,13.00
2020,01,14,06,05,10.50
2020,01,14,06,06,8.80
2020,01,14,06,07,7.50
2020,01,14,06,08,9.50
2020,01,14,06,09,11.50
2020,01,14,06,10,7.80
2020,01,14,06,11,11.20
2020,01,14,06,12,14.50
2020,01,14,06,13,15.90
2020,01,14,06,14,12.20
2020,01,14,06,15,12.10
2020,01,14,06,16,6.40
2020,01,14,06,17,5.40
2020,01,14,06,18,10.20
2020,01,14,06,19,8.80
2020,01,14,06,20,11.70
2020,01,14,06,21,11.10
2020,01,14,06,22,4.20
2020,01,14,06,23,7.20
2020,01,14,06,24,10.80
2020,01,14,06,25,17.80
2020,01,14,06,26,12.10
2020,01,14,06,27,6.60
2020,01,14,06,28,14.40
2020,01,14,06,29,7.50
2020,01,14,06,30,15.90
2020,01,14,06,31,13.80
2020,01,14,06,32,14.60
2020,01,14,06,33,21.00
2020,01,14,06,34,11.10
2020,01,14,06,35,13.20
2020,01,14,06,36,17.30
2020,01,14,06,37,8.70
2020,01,14,06,38,8.40
2020,01,14,06,39,9.10
2020,01,14,06,40,11.50
2020,01,14,06,41,9.30
2020,01,14,06,42,13.40
2020,01,14,06,43,13.40
2020,01,14,06,44,6.20
2020,01,14,06,45,8.30
2020,01,14,06,46,12.30
2020,01,14,06,47,16.40
2020,01,14,06,48,17.40
2020,01,14,06,49,15.50
2020,01,14,06,50,16.10
2020,01,14,06,51,14.70
2020,01,14,06,52,14.30
2020,01,14,06,53,14.80
2020,01,14,06,54,15.00
2020,01,14,06,55,14.80
2020,01,14,06,56,14.50
2020,01,14,06,57,13.90
2020,01,14,06,58,11.10
2020,01,14,06,59,6.70
2020,01,14,07,00,6.90
2020,01,14,07,01,5.40
2020,01,14,07,02,11.30
2020,01,14,07,03,7.30
2020,01,14,07,04,6.60
2020,01,14,07,05,15.70
2020,01,14,07,06,7.40
2020,01,14,07,07,12.40
2020,01,14,07,08,11.90
2020,01,14,07,09,11.70
2020,01,14,07,10,9.70
2020,01,14,07,11,9.50
2020,01,14,07,12,9.60
2020,01,14,07,13,11.40
2020,01,14,07,14,11.30
2020,01,14,07,15,8.00
2020,01,14,07,16,8.20
2020,01,14,07,17,5.50
2020,01,14,07,18,6.40
2020,01,14,07,19,7.30
2020,01,14,07,20,4.20
2020,01,14,07,21,5.00
2020,01,14,07,22,5.60
2020,01,14,07,23,3.20
2020,01,14,07,24,3.40
2020,01,14,07,25,8.00
2020,01,14,07,26,6.60
2020,01,14,07,27,4.80
2020,01,14,07,28,7.80
2020,01,14,07,29,4.80
2020,01,14,07,30,2.40
2020,01,14,07,31,5.90
2020,01,14,07,32,5.40
2020,01,14,07,33,5.50
2020,01,14,07,34,6.10
2020,01,14,07,35,2.50
2020,01,14,07,36,3.50
2020,01,14,07,37,4.10
2020,01,14,07,38,3.00
2020,01,14,07,39,6.20
2020,01,14,07,40,6.60
2020,01,14,07,41,8.10
2020,01,14,07,42,7.30
2020,01,14,07,43,7.90
2020,01,14,07,44,3.50
2020,01,14,07,45,5.20
2020,01,14,07,46,8.80
2020,01,14,07,47,5.70
2020,01,14,07,48,3.10
2020,01,14,07,49,2.80
2020,01,14,07,50,1.50
2020,01,14,07,51,2.30
2020,01,14,07,52,7.50
2020,01,14,07,53,4.50
2020,01,14,07,54,6.60
2020,01,14,07,55,11.20
2020,01,14,07,56,6.10
2020,01,14,07,57,7.60
2020,01,14,07,58,3.60
2020,01,14,07,59,3.80
2020,01,14,08,00,3.60
2020,01,14,08,01,1.40
2020,01,14,08,02,5.60
2020,01,14,08,03,7.60
2020,01,14,08,04,12.20
2020,01,14,08,05,12.50
2020,01,14,08,06,9.80
2020,01,14,08,07,7.70
2020,01,14,08,08,8.30
2020,01,14,08,09,9.60
2020,01,14,08,10,10.60
2020,01,14,08,11,11.70
2020,01,14,08,12,10.30
2020,01,14,08,13,7.10
2020,01,14,08,14,6.90
2020,01,14,08,15,5.60
2020,01,14,08,16,3.50
2020,01,14,08,17,5.20
2020,01,14,08,18,11.10
2020,01,14,08,19,12.80
2020,01,14,08,20,4.30
2020,01,14,08,21,5.40
2020,01,14,08,22,4.60
2020,01,14,08,23,2.50
2020,01,14,08,24,8.00
2020,01,14,08,25,5.80
2020,01,14,08,26,9.70
2020,01,14,08,27,8.50
2020,01,14,08,28,5.50
2020,01,14,08,29,10.10
2020,01,14,08,30,8.90
2020,01,14,08,31,5.00
2020,01,14,08,32,5.50
2020,01,14,08,33,5.00
2020,01,14,08,34,9.30
2020,01,14,08,35,10.40
2020,01,14,08,36,8.50
2020,01,14,08,37,8.50
2020,01,14,08,38,9.10
2020,01,14,08,39,12.40
2020,01,14,08,40,11.70
2020,01,14,08,41,10.10
2020,01,14,08,42,11.50
2020,01,14,08,43,9.50
2020,01,14,08,44,13.70
2020,01,14,08,45,11.10
2020,01,14,08,46,9.70
2020,01,14,08,47,7.20
2020,01,14,08,48,10.30
2020,01,14,08,49,10.00
2020,01,14,08,50,8.80
2020,01,14,08,51,7.20
2020,01,14,08,52,8.10
2020,01,14,08,53,7.90
2020,01,14,08,54,6.40
2020,01,14,08,55,9.60
2020,01,14,08,56,9.30
2020,01,14,08,57,8.30
2020,01,14,08,58,12.50
2020,01,14,08,59,15.90
2020,01,14,09,00,11.00
2020,01,14,09,01,9.70
2020,01,14,09,02,10.00
2020,01,14,09,03,6.20
2020,01,14,09,04,7.10
2020,01,14,09,05,5.00
2020,01,14,09,06,9.90
2020,01,14,09,07,6.90
2020,01,14,09,08,6.60
2020,01,14,09,09,6.90
2020,01,14,09,10,6.70
2020,01,14,09,11,11.90
2020,01,14,09,12,10.10
2020,01,14,09,13,6.90
2020,01,14,09,14,5.00
2020,01,14,09,15,6.40
2020,01,14,09,16,7.40
2020,01,14,09,17,11.80
2020,01,14,09,18,9.80
2020,01,14,09,19,8.50
2020,01,14,09,20,12.70
2020,01,14,09,21,11.10
2020,01,14,09,22,12.00
2020,01,14,09,23,11.20
2020,01,14,09,24,9.70
2020,01,14,09,25,10.20
2020,01,14,09,26,13.90
2020,01,14,09,27,12.90
2020,01,14,09,28,12.40
2020,01,14,09,29,9.30
2020,01,14,09,30,13.30
2020,01,14,09,31,10.70
2020,01,14,09,32,12.50
2020,01,14,09,33,11.90
2020,01,14,09,34,10.30
2020,01,14,09,35,10.90
2020,01,14,09,36,9.10
2020,01,14,09,37,8.80
2020,01,14,09,38,8.10
2020,01,14,09,39,6.60
2020,01,14,09,40,7.30
2020,01,14,09,41,6.40
2020,01,14,09,42,6.10
2020,01,14,09,43,6.70
2020,01,14,09,44,7.80
2020,01,14,09,45,10.60
2020,01,14,09,46,9.00
2020,01,14,09,47,10.70
2020,01,14,09,48,7.50
2020,01,14,09,49,9.40
2020,01,14,09,50,7.70
2020,01,14,09,51,10.30
2020,01,14,09,52,9.40
2020,01,14,09,53,11.20
2020,01,14,09,54,13.70
2020,01,14,09,55,12.40
2020,01,14,09,56,10.40
2020,01,14,09,57,10.30
2020,01,14,09,58,8.50
2020,01,14,09,59,8.00
2020,01,14,10,00,5.10
2020,01,14,10,01,7.90
2020,01,14,10,02,9.50
2020,01,14,10,03,11.10
2020,01,14,10,04,9.70
2020,01,14,10,05,9.70
2020,01,14,10,06,4.80
2020,01,14,10,07,8.30
2020,01,14,10,08,5.40
2020,01,14,10,09,10.50
2020,01,14,10,10,8.30
2020,01,14,10,11,8.60
2020,01,14,10,12,6.90
2020,01,14,10,13,5.00
2020,01,14,10,14,5.00
2020,01,14,10,15,7.90
2020,01,14,10,16,10.30
2020,01,14,10,17,7.70
2020,01,14,10,18,5.60
2020,01,14,10,19,7.40
2020,01,14,10,20,8.80
2020,01,14,10,21,11.50
2020,01,14,10,22,8.50
2020,01,14,10,23,8.10
2020,01,14,10,24,8.80
2020,01,14,10,25,8.50
2020,01,14,10,26,7.30
2020,01,14,10,27,8.70
2020,01,14,10,28,13.20
2020,01,14,10,29,11.60
2020,01,14,10,30,11.40
2020,01,14,10,31,8.60
2020,01,14,10,32,13.30
2020,01,14,10,33,13.80
2020,01,14,10,34,12.00
2020,01,14,10,35,7.50
2020,01,14,10,36,13.80
2020,01,14,10,37,14.90
2020,01,14,10,38,10.70
2020,01,14,10,39,14.80
2020,01,14,10,40,7.80
2020,01,14,10,41,6.40
2020,01,14,10,42,6.20
2020,01,14,10,43,12.10
2020,01,14,10,44,6.30
2020,01,14,10,45,5.40
2020,01,14,10,46,7.40
2020,01,14,10,47,8.30
2020,01,14,10,48,7.40
2020,01,14,10,49,8.10
2020,01,14,10,50,9.20
2020,01,14,10,51,6.10
2020,01,14,10,52,5.90
2020,01,14,10,53,3.90
2020,01,14,10,54,4.50
2020,01,14,10,55,5.30
2020,01,14,10,56,4.50
2020,01,14,10,57,5.10
2020,01,14,10,58,11.60
2020,01,14,10,59,9.00
2020,01,14,11,00,8.70
2020,01,14,11,01,7.60
2020,01,14,11,02,9.90
2020,01,14,11,03,7.50
2020,01,14,11,04,6.50
2020,01,14,11,05,8.30
2020,01,14,11,06,8.80
2020,01,14,11,07,10.00
2020,01,14,11,08,8.00
2020,01,14,11,09,6.20
2020,01,14,11,10,9.00
2020,01,14,11,11,5.40
2020,01,14,11,12,7.10
2020,01,14,11,13,3.50
2020,01,14,11,14,5.10
2020,01,14,11,15,6.00
2020,01,14,11,16,6.80
2020,01,14,11,17,10.10
2020,01,14,11,18,9.20
2020,01,14,11,19,9.40
2020,01,14,11,20,7.60
2020,01,14,11,21,7.50
2020,01,14,11,22,3.80
2020,01,14,11,23,3.00
2020,01,14,11,24,5.50
2020,01,14,11,25,6.70
2020,01,14,11,26,6.80
2020,01,14,11,27,7.40
2020,01,14,11,28,8.60
2020,01,14,11,29,7.60
2020,01,14,11,30,8.50
2020,01,14,11,31,8.40
2020,01,14,11,32,4.70
2020,01,14,11,33,6.40
2020,01,14,11,34,4.90
2020,01,14,11,35,7.60
2020,01,14,11,36,6.80
2020,01,14,11,37,6.40
2020,01,14,11,38,6.90
2020,01,14,11,39,4.50
2020,01,14,11,40,4.20
2020,01,14,11,41,2.40
2020,01,14,11,42,5.70
2020,01,14,11,43,5.60
2020,01,14,11,44,10.20
2020,01,14,11,45,9.90
2020,01,14,11,46,7.70
2020,01,14,11,47,7.40
2020,01,14,11,48,8.80
2020,01,14,11,49,10.10
2020,01,14,11,50,11.10
2020,01,14,11,51,9.40
2020,01,14,11,52,5.40
2020,01,14,11,53,6.00
2020,01,14,11,54,2.20
2020,01,14,11,55,4.20
2020,01,14,11,56,6.30
2020,01,14,11,57,5.90
2020,01,14,11,58,4.90
2020,01,14,11,59,6.40
2020,01,14,12,00,5.80
2020,01,14,12,01,3.70
2020,01,14,12,02,8.80
2020,01,14,12,03,5.20
2020,01,14,12,04,6.70
2020,01,14,12,05,2.60
2020,01,14,12,06,5.80
2020,01,14,12,07,3.60
2020,01,14,12,08,7.10
2020,01,14,12,09,6.30
2020,01,14,12,10,7.20
2020,01,14,12,11,8.00
2020,01,14,12,12,8.70
2020,01,14,12,13,8.00
2020,01,14,12,14,4.50
2020,01,14,12,15,5.20
2020,01,14,12,16,8.00
2020,01,14,12,17,4.80
2020,01,14,12,18,5.70
2020,01,14,12,19,3.60
2020,01,14,12,20,3.50
2020,01,14,12,21,3.70
2020,01,14,12,22,4.50
2020,01,14,12,23,5.40
2020,01,14,12,24,4.60
2020,01,14,12,25,6.70
2020,01,14,12,26,2.20
2020,01,14,12,27,3.80
2020,01,14,12,28,3.10
2020,01,14,12,29,0.10
2020,01,14,12,30,0.00
2020,01,14,12,31,1.00
2020,01,14,12,32,3.70
2020,01,14,12,33,4.60
2020,01,14,12,34,1.70
2020,01,14,12,35,3.80
2020,01,14,12,36,1.50
2020,01,14,12,37,0.80
2020,01,14,12,38,0.00
2020,01,14,12,39,0.00
2020,01,14,12,40,0.00
2020,01,14,12,41,0.00
2020,01,14,12,42,0.00
2020,01,14,12,43,2.50
2020,01,14,12,44,5.80
2020,01,14,12,45,4.70
2020,01,14,12,46,3.40
2020,01,14,12,47,4.80
2020,01,14,12,48,0.50
2020,01,14,12,49,1.30
2020,01,14,12,50,2.00
2020,01,14,12,51,0.90
2020,01,14,12,52,0.00
2020,01,14,12,53,1.10
2020,01,14,12,54,3.70
2020,01,14,12,55,1.80
2020,01,14,12,56,2.40
2020,01,14,12,57,2.10
2020,01,14,12,58,3.10
2020,01,14,12,59,4.50
2020,01,14,13,00,2.20
2020,01,14,13,01,1.80
2020,01,14,13,02,3.40
2020,01,14,13,03,2.30
2020,01,14,13,04,3.30
2020,01,14,13,05,4.20
2020,01,14,13,06,4.60
2020,01,14,13,07,1.00
2020,01,14,13,08,0.70
2020,01,14,13,09,0.40
2020,01,14,13,10,2.20
2020,01,14,13,11,3.00
2020,01,14,13,12,2.40
2020,01,14,13,13,4.30
2020,01,14,13,14,3.80
2020,01,14,13,15,3.10
2020,01,14,13,16,3.40
2020,01,14,13,17,3.10
2020,01,14,13,18,3.50
2020,01,14,13,19,2.90
2020,01,14,13,20,4.70
2020,01,14,13,21,5.70
2020,01,14,13,22,7.60
2020,01,14,13,23,4.80
2020,01,14,13,24,5.70
2020,01,14,13,25,3.30
2020,01,14,13,26,3.90
2020,01,14,13,27,2.00
2020,01,14,13,28,4.60
2020,01,14,13,29,3.10
2020,01,14,13,30,5.30
2020,01,14,13,31,3.40
2020,01,14,13,32,1.00
2020,01,14,13,33,4.10
2020,01,14,13,34,5.30
2020,01,14,13,35,4.80
2020,01,14,13,36,5.10
2020,01,14,13,37,3.90
2020,01,14,13,38,4.70
2020,01,14,13,39,2.90
2020,01,14,13,40,3.70
2020,01,14,13,41,2.30
2020,01,14,13,42,3.80
2020,01,14,13,43,3.20
2020,01,14,13,44,7.20
2020,01,14,13,45,6.80
2020,01,14,13,46,4.50
2020,01,14,13,47,2.40
2020,01,14,13,48,3.40
2020,01,14,13,49,6.00
2020,01,14,13,50,6.30
2020,01,14,13,51,5.30
2020,01,14,13,52,6.40
2020,01,14,13,53,6.90
2020,01,14,13,54,1.90
2020,01,14,13,55,3.60
2020,01,14,13,56,5.70
2020,01,14,13,57,5.70
2020,01,14,13,58,6.10
2020,01,14,13,59,9.40
2020,01,14,14,00,8.60
2020,01,14,14,01,5.00
2020,01,14,14,02,1.80
2020,01,14,14,03,4.00
2020,01,14,14,04,6.40
2020,01,14,14,05,4.80
2020,01,14,14,06,6.70
2020,01,14,14,07,2.40
2020,01,14,14,08,1.50
2020,01,14,14,09,2.40
2020,01,14,14,10,7.40
2020,01,14,14,11,5.50
2020,01,14,14,12,5.90
2020,01,14,14,13,5.70
2020,01,14,14,14,4.90
2020,01,14,14,15,3.60
2020,01,14,14,16,9.20
2020,01,14,14,17,10.00
2020,01,14,14,18,7.00
2020,01,14,14,19,6.80
2020,01,14,14,20,6.50
2020,01,14,14,21,6.20
2020,01,14,14,22,4.90
2020,01,14,14,23,7.10
2020,01,14,14,24,10.50
2020,01,14,14,25,12.00
2020,01,14,14,26,8.00
2020,01,14,14,27,11.80
2020,01,14,14,28,11.00
2020,01,14,14,29,5.90
2020,01,14,14,30,8.90
2020,01,14,14,31,13.80
2020,01,14,14,32,8.10
2020,01,14,14,33,8.60
2020,01,14,14,34,9.60
2020,01,14,14,35,5.70
2020,01,14,14,36,6.90
2020,01,14,14,37,9.70
2020,01,14,14,38,3.40
2020,01,14,14,39,9.40
2020,01,14,14,40,12.00
2020,01,14,14,41,10.70
2020,01,14,14,42,12.70
2020,01,14,14,43,11.40
2020,01,14,14,44,11.10
2020,01,14,14,45,12.20
2020,01,14,14,46,12.20
2020,01,14,14,47,10.80
2020,01,14,14,48,8.70
2020,01,14,14,49,9.10
2020,01,14,14,50,8.80
2020,01,14,14,51,5.20
2020,01,14,14,52,9.90
2020,01,14,14,53,7.10
2020,01,14,14,54,8.20
2020,01,14,14,55,6.70
2020,01,14,14,56,6.70
2020,01,14,14,57,7.80
2020,01,14,14,58,12.10
2020,01,14,14,59,9.80
2020,01,14,15,00,6.40
2020,01,14,15,01,6.40
2020,01,14,15,02,9.60
2020,01,14,15,03,8.90
2020,01,14,15,04,9.50
2020,01,14,15,05,11.30
2020,01,14,15,06,15.70
2020,01,14,15,07,13.50
2020,01,14,15,08,9.40
2020,01,14,15,09,11.90
2020,01,14,15,10,10.00
2020,01,14,15,11,12.50
2020,01,14,15,12,9.40
2020,01,14,15,13,7.80
2020,01,14,15,14,10.70
2020,01,14,15,15,13.00
2020,01,14,15,16,9.30
2020,01,14,15,17,6.70
2020,01,14,15,18,11.70
2020,01,14,15,19,11.20
2020,01,14,15,20,10.40
2020,01,14,15,21,12.00
2020,01,14,15,22,13.00
2020,01,14,15,23,10.70
2020,01,14,15,24,8.70
2020,01,14,15,25,10.60
2020,01,14,15,26,12.50
2020,01,14,15,27,9.40
2020,01,14,15,28,7.90
2020,01,14,15,29,10.20
2020,01,14,15,30,8.80
2020,01,14,15,31,11.00
2020,01,14,15,32,14.80
2020,01,14,15,33,7.90
2020,01,14,15,34,6.80
2020,01,14,15,35,5.50
2020,01,14,15,36,3.10
2020,01,14,15,37,2.50
2020,01,14,15,38,9.30
2020,01,14,15,39,8.70
2020,01,14,15,40,7.30
2020,01,14,15,41,7.70
2020,01,14,15,42,11.30
2020,01,14,15,43,10.60
2020,01,14,15,44,8.00
2020,01,14,15,45,10.90
2020,01,14,15,46,8.80
2020,01,14,15,47,11.80
2020,01,14,15,48,8.30
2020,01,14,15,49,4.40
2020,01,14,15,50,5.30
2020,01,14,15,51,8.30
2020,01,14,15,52,9.40
2020,01,14,15,53,7.20
2020,01,14,15,54,5.60
2020,01,14,15,55,3.20
2020,01,14,15,56,10.20
2020,01,14,15,57,6.00
2020,01,14,15,58,4.30
2020,01,14,15,59,2.90
2020,01,14,16,00,6.40
2020,01,14,16,01,1.50
2020,01,14,16,02,4.70
2020,01,14,16,03,11.30
2020,01,14,16,04,8.80
2020,01,14,16,05,10.40
2020,01,14,16,06,4.60
2020,01,14,16,07,6.80
2020,01,14,16,08,5.40
2020,01,14,16,09,3.40
2020,01,14,16,10,3.80
2020,01,14,16,11,2.80
2020,01,14,16,12,2.30
2020,01,14,16,13,6.20
2020,01,14,16,14,4.80
2020,01,14,16,15,6.00
2020,01,14,16,16,11.50
2020,01,14,16,17,4.90
2020,01,14,16,18,3.50
2020,01,14,16,19,2.70
2020,01,14,16,20,5.90
2020,01,14,16,21,8.90
2020,01,14,16,22,6.80
2020,01,14,16,23,2.10
2020,01,14,16,24,6.40
2020,01,14,16,25,5.20
2020,01,14,16,26,6.30
2020,01,14,16,27,6.30
2020,01,14,16,28,5.60
2020,01,14,16,29,4.60
2020,01,14,16,30,4.90
2020,01,14,16,31,5.50
2020,01,14,16,32,5.10
2020,01,14,16,33,0.90
2020,01,14,16,34,3.10
2020,01,14,16,35,3.50
2020,01,14,16,36,7.90
2020,01,14,16,37,6.10
2020,01,14,16,38,6.40
2020,01,14,16,39,7.80
2020,01,14,16,40,4.20
2020,01,14,16,41,3.60
2020,01,14,16,42,3.80
2020,01,14,16,43,0.60
2020,01,14,16,44,7.00
2020,01,14,16,45,8.00
2020,01,14,16,46,6.60
2020,01,14,16,47,5.70
2020,01,14,16,48,2.70
2020,01,14,16,49,3.10
2020,01,14,16,50,4.80
2020,01,14,16,51,1.40
2020,01,14,16,52,2.10
2020,01,14,16,53,3.40
2020,01,14,16,54,3.80
2020,01,14,16,55,2.10
2020,01,14,16,56,5.20
2020,01,14,16,57,5.30
2020,01,14,16,58,3.40
2020,01,14,16,59,6.70
2020,01,14,17,00,4.80
2020,01,14,17,01,3.40
2020,01,14,17,02,3.80
2020,01,14,17,03,4.50
2020,01,14,17,04,2.90
2020,01,14,17,05,2.20
2020,01,14,17,06,5.60
2020,01,14,17,07,3.50
2020,01,14,17,08,2.70
2020,01,14,17,09,0.20
2020,01,14,17,10,0.00
2020,01,14,17,11,0.00
2020,01,14,17,12,1.30
2020,01,14,17,13,5.40
2020,01,14,17,14,4.00
2020,01,14,17,15,4.10
2020,01,14,17,16,1.70
2020,01,14,17,17,3.30
2020,01,14,17,18,4.60
2020,01,14,17,19,3.60
2020,01,14,17,20,3.10
2020,01,14,17,21,1.30
2020,01,14,17,22,3.70
2020,01,14,17,23,5.70
2020,01,14,17,24,5.50
2020,01,14,17,25,5.80
2020,01,14,17,26,4.40
2020,01,14,17,27,4.30
2020,01,14,17,28,6.30
2020,01,14,17,29,2.70
2020,01,14,17,30,2.30
2020,01,14,17,31,4.00
2020,01,14,17,32,1.70
2020,01,14,17,33,6.20
2020,01,14,17,34,4.00
2020,01,14,17,35,6.00
2020,01,14,17,36,4.40
2020,01,14,17,37,5.60
2020,01,14,17,38,5.90
2020,01,14,17,39,6.70
2020,01,14,17,40,4.80
2020,01,14,17,41,2.60
2020,01,14,17,42,2.40
2020,01,14,17,43,4.00
2020,01,14,17,44,2.70
2020,01,14,17,45,5.50
2020,01,14,17,46,4.60
2020,01,14,17,47,6.90
2020,01,14,17,48,4.00